Погода в Эндирее

Россия / Республика Дагестан     43°10′59″N   46°39′39″E
темп.,
°C
ветер,
м/с
пор.,
м/с
влажн.,
%
обл.,
%
осадки,
мм/ч
давл.,
гПа
погр.,
м
25 июня, сб
сб2500:00+18вюв348553 0.1 100880
03:00+17зюз118763 0.1 100911
06:00+20зсз3372100 0.0 1010205
09:00+25ссв224992 0.0 10091132
12:00+28в5344100 0.0 10081878
15:00+29в5441100 0.0 10071786
18:00+24всв5555100 0.4 1008498
21:00+21в1269100 0.7 100912
26 июня, вс
вс2600:00+20з3378100 0.0 100849
03:00+19з3588100 0.8 1008123
06:00+19зсз3586100 0.0 1009216
09:00+25сз4353100 0.0 1008877
12:00+28с333989 0.0 10071467
15:00+30з3434100 0.0 10052101
18:00+29з5640100 0.1 10061089
21:00+23з71267100 0.4 1008488
27 июня, пн
пн2700:00+21з51074100 0.0 1009346
03:00+20зсз510750 0.0 1009345
06:00+23з610610 0.0 1010541
09:00+27зсз884861 0.0 10101109
12:00+30сз544527 0.0 10101586
15:00+30ссз4445100 0.0 10091691
18:00+28ссв444474 0.1 1010876
21:00+21сз226552 0.1 101116
28 июня, вт
вт2800:00+20з3369100 0.0 101153
03:00+20з357399 0.0 101082
06:00+22зсз46625 0.0 1010276
09:00+28сз45360 0.0 10091396
12:00+33ссз45230 0.0 10082256
15:00+33ссв86250 0.0 10082543
18:00+29св65300 0.0 10101382
21:00+21ююз225299 0.1 101216
29 июня, ср
ср2900:00+21юз2255100 0.0 101213
03:00+20з225410 0.0 101115
06:00+23зсз34430 0.0 1012181
09:00+29сз33290 0.0 10121246
12:00+33с122421 0.0 10102554
15:00+27всв785496 0.0 10111110
18:00+25в7761100 0.0 1012977
21:00+21в6880100 0.0 1014554